Regional Weather Roundup
Issued by NWS Grand Forks, ND

Home | Current Version | Previous Version | Graphics & Text | Print | Product List | Glossary On
Versions: 1 2 3 4 5 6 7 8 9 10 11 12 13 14 15 16 17 18 19 20 21 22 23 24 25 26 27 28 29 30 31 32 33 34 35 36 37 38 39 40 41 42 43 44 45 46 47 48 49 50
000
ASUS43 KFGF 031931
RWRFGF
PRAIRIE TO PINES  WEATHER ROUNDUP
NATIONAL WEATHER SERVICE EASTERN NORTH DAKOTA/GRAND FORKS ND
200 PM CDT WED JUN 03 2015

 **SATELLITE DATA USED TO AUGMENT SKY COVER AT AUTOMATED STATIONS**
 *****  WEATHER ACROSS EASTERN NORTH DAKOTA  *****

CITY           SKY/WX    TMP DP  RH WIND       PRES   REMARKS
GRAND FORKS    CLOUDY    57  51  80 N14G21    29.87R
GRAND FRKS AFB CLOUDY    56  50  78 N14       29.88S
GRAND FRKS NWS   N/A     55 N/A N/A N14         N/A
DEVILS LAKE    CLOUDY    61  45  55 N17G24    29.93S
FARGO          CLOUDY    60  55  83 NW13      29.84S
WAHPETON ARPT  CLOUDY    59  54  82 NW9       29.87R
$$

 ***** WEATHER ACROSS CENTRAL AND WESTERN NORTH DAKOTA  *****

CITY           SKY/WX    TMP DP  RH WIND       PRES   REMARKS
BISMARCK       PTSUNNY   63  47  55 N15       29.99R
MINOT          CLOUDY    61  41  47 N14       30.02S
JAMESTOWN      CLOUDY    55  49  80 NW20      29.92R
MINOT AFB      MOSUNNY   62  44  53 N15       30.02S
GARRISON         N/A     63  42  46 N9G18     30.01S
WILLISTON      MOSUNNY   66  44  45 VRB7      30.03F
DICKINSON      SUNNY     63  46  54 N8        30.00F
HETTINGER      SUNNY     64  50  60 N12G17    30.01F
$$

 *****  OTHER AIRPORT OBSERVATIONS IN OUR AREA  *****

CITY           SKY/WX    TMP DP  RH WIND       PRES   REMARKS
WALHALLA       FAIR      59  46  63 MISG      29.96R
GRAFTON AIRPOR CLOUDY    57  52  82 N17G23    29.90S
VALLEY CITY AR CLOUDY    54  54 100 NW14      29.91R
CANDO          CLOUDY    59  43  55 N18G24    29.98R
CAVALIER APRT  LGT RAIN  57  48  72 N16G23    29.93S
GWINNER        NOT AVBL
ROLLA          CLOUDY    54  43  66 N17       30.01R
 ***** THE ABOVE OBSERVATIONS ARE NON NWS ARE NOT QUALITY
       CONTROLLED AND MAY MIS-REPORT RAIN FOR SNOW...
$$

  *****  WEATHER ACROSS NORTHERN MINNESOTA  *****

CITY           SKY/WX    TMP DP  RH WIND       PRES   REMARKS
FLAG ISLAND    CLOUDY    61  55  82 N15       29.90R
WARROAD        CLOUDY    61  57  88 NE9       29.90R
ROSEAU         CLOUDY    63  57  82 E14       29.89R
HALLOCK        DRIZZLE   61  55  82 N10       29.89R
THF RVR FALLS  CLOUDY    64  59  82 N13       29.86R
BAUDETTE       CLOUDY    63  58  83 NE13      29.86S
WASKISH        CLOUDY    66  61  82 CALM      29.85R
CROOKSTON      CLOUDY    64  63  94 N13       29.85
STEPHEN NDAWN    N/A    N/A N/A N/A NE10        N/A
GREENBUSH NDAW   N/A     63  59  88 NE7         N/A
$$
  *****  WEATHER ACROSS CENTRAL AND WEST MINNESOTA  *****

CITY           SKY/WX    TMP DP  RH WIND       PRES   REMARKS
FOSSTON        CLOUDY    66  63  88 NE3       29.84R
BEMIDJI        CLOUDY    63  60  91 E5        29.85R
PARK RAPIDS    CLOUDY    66  62  87 S10       29.84R FOG
ELBOW LAKE     CLOUDY    59  59  98 NW7       29.86R FOG
WADENA         CLOUDY    63  61  94 SW3       29.85R FOG
DETROIT LAKES  CLOUDY    59  57  94 NW8       29.85R FOG
MOORHEAD       CLOUDY    59  55  88 NW10      29.86R
FERGUS FALLS   CLOUDY    59  57  94 NW7       29.86R
MORRIS MN      CLOUDY    66  63  88 NW6       29.85R
STAPLES        CLOUDY    63  59  88 S6        29.86S
$$
  *****  WEATHER ELSEWHERE ACROSS MINNESOTA  *****

CITY           SKY/WX    TMP DP  RH WIND       PRES   REMARKS
DULUTH         CLOUDY    61  56  83 E7        29.89R
INTRNTL FALLS  CLOUDY    65  58  78 NE9       29.87R
ELY            CLOUDY    63  57  82 SW5       29.90R
CLOQUET        CLOUDY    57  54  88 SE5       29.91R
WHEATON        CLOUDY    63  57  82 NW6       29.88R
BRAINERD       CLOUDY    62  60  93 S5        29.87S
HIBBING        CLOUDY    60  57  89 SE8       29.89R FOG
ALEXANDRIA     CLOUDY    63  61  93 NW8       29.88R FOG
SAINT CLOUD    LGT RAIN  62  61  96 SE5       29.85F FOG
MINNEAPOLIS    CLOUDY    65  60  84 VRB3      29.88F
$$

  *****  WEATHER ACROSS SOUTH DAKOTA  *****

CITY           SKY/WX    TMP DP  RH WIND       PRES   REMARKS
SIOUX FALLS    MOSUNNY   76  63  64 W7        29.89R
BROOKINGS      CLOUDY    70  63  78 NW13      29.90R
WATERTOWN      PTSUNNY   71  63  75 N8        29.88R
HURON          MOSUNNY   74  60  61 NW14G21   29.89S
SISSETON         N/A     67  59  75 N13       29.86R
ABERDEEN       CLOUDY    67  56  67 N14       29.91R
MITCHELL       PTSUNNY   77  61  57 NW15      29.90R
PIERRE         MOSUNNY   67  55  65 NW17      29.95F
MOBRIDGE       SUNNY     68  50  52 NW13G22   29.95R
RAPID CITY     CLOUDY    62  53  72 NE10      30.02F
$$

  *****  SOME WEATHER IN NEARBY STATES *****

CITY           SKY/WX    TMP DP  RH WIND       PRES   REMARKS
GLASGOW MT     MOSUNNY   65  49  56 SE7G20    30.00F
GREAT FALLS MT MOSUNNY   65  42  43 NW5       29.94F
CHEYENNE WY    PTSUNNY   64  53  67 S17       30.08F
SCOTTSBLUFF NE SUNNY     75  55  49 SE10      30.00F
OMAHA NE       CLOUDY    74  64  71 VRB6      29.92R
DES MOINES IA  CLOUDY    73  63  70 SW7       29.91R
DAVENPORT IA   PTSUNNY   79  57  46 SE18      29.96F
CHICAGO IL     PTSUNNY   73  54  51 S9        30.02F
EAU CLAIRE WI  CLOUDY    71  56  58 S12       29.91R
LA CROSSE WI   CLOUDY    75  57  53 SE18      29.91R
$$

  *****  SOME NATIONAL WEATHER *****

CITY           SKY/WX    TMP DP  RH WIND       PRES   REMARKS
LA GUARDIA NY  PTSUNNY   67  48  50 NE9       30.19F
RALEIGH NC     DRIZZLE   66  64  94 NE7       30.07S FOG
ATLANTA GA     PTSUNNY   77  64  64 SE13      29.96F
NEW ORLEANS LA MOSUNNY   87  64  46 N7        29.92F
OKLAHOMA CITY  MOSUNNY   87  65  47 S21G28    29.89S
ALBUQUERQUE NM MOSUNNY   82  21  10 VRB3      30.05F
SALT LAKE CITY MOSUNNY   77  48  35 NW7       29.85F
LOS ANGELES CA CLOUDY    65  55  70 SE6       29.97R
BOISE ID       PTSUNNY   68  43  40 NW12G23   29.94F
SEATTLE WA     CLOUDY    61  50  67 VRB3      30.08S
$$

*** WEATHER ACROSS MANITOBA...SASKATCHEWAN AND ONTARIO ***
                ***ONTARIO***

CITY           SKY/WX    TMP DP  RH WIND       PRES   REMARKS
GERALDTON      CLOUDY    59  55  88 W5        29.94S
THUNDER BAY    PTSUNNY   63  52  67 E12       29.90F
SIOUX LOOKOUT  PTSUNNY   66  54  63 E5        29.92S
TORONTO        MOSUNNY   66  45  45 E8G17     30.17F
BIG TROUT LK   CLOUDY    59  41  51 NW10G20   29.94R
PICKLE LAKE    PTSUNNY   68  34  28 VRB5      29.93R
DRYDEN         PTSUNNY   66  55  68 NE8       29.91F
KENORA         PTSUNNY   66  48  52 NE9       29.92F
$$
                *** MANITOBA***

CITY           SKY/WX    TMP DP  RH WIND       PRES   REMARKS
BRANDON        CLOUDY    61  41  48 N12G17    30.03S
DAUPHIN        MOSUNNY   64  28  25 N12G17    30.06R
ISLAND LAKE    PTSUNNY   61  39  44 NW10      30.02
PILOT MOUND      N/A     55  43  62 N15         N/A
THE PAS        PTSUNNY   64  23  20 N6        30.08S
THOMPSON       MOSUNNY   61  41  48 N10G18    30.06S
WINNIPEG       PTSUNNY   64  36  34 N21       29.98R
LYNN LAKE      SUNNY     59  30  33 N14       30.10F
CHURCHILL      CLOUDY    37  34  87 NW12      30.06
GILLAM         PTSUNNY   54  41  62 N12       30.04S
$$
                ***SASKATCHEWAN***

CITY           SKY/WX    TMP DP  RH WIND       PRES   REMARKS
ESTEVAN        MOSUNNY   61  39  44 E3        30.06S
KINDERSLEY     CLOUDY    64  32  29 E16G28    29.99F
LLOYDMINSTER   PTSUNNY   70  28  21 SE15G21   30.00S
PRINCE ALBERT  PTSUNNY   68  28  22 SE12      30.05F
REGINA         PTSUNNY   64  37  36 S3        30.04F
YORKTON        MOSUNNY   61  28  29 CALM      30.08S
N. BATTLEFORD  SUNNY     68  27  21 SE12G22   30.04S
LA RONGE       MOSUNNY   66  25  20 VRB2      30.09F
SASKATOON      PTSUNNY   68  32  26 SE8       30.04S
SWIFT CURRENT  CLOUDY    55  50  82 SE15G22   30.00R
$$
NOTE: THESE ARE AUTOMATED STATIONS WITH LIMITED QUALITY CONTROL
      "FAIR" INDICATES FEW OR NO CLOUDS BELOW 12,000 FEET WITH NO
      SIGNIFICANT WEATHER AND/OR OBSTRUCTIONS TO VISIBILITY.
      SKY/WX - SKY CONDITION AND SIGNIFICANT WEATHER.
      TMP - AIR TEMPERATURE.    DP   - DEWPOINT TEMPERATURE.
      RH  - RELATIVE HUMIDITY.  PRES - PRESSURE.
      HX  - HEAT INDEX.         WCI  - WIND CHILL INDEX.
$


USA.gov is the U.S. government's official web portal to all federal, state and local government web resources and services.